DW4666 Weather Reports


time (UTC)temp
C
wind
direction
speed
KPH
gust
KPH
rain 1hr
cm
rain 24hr
cm
rain mn
cm
humidity
%
barometer
mb
20260503210003 10 78 0.0 3.2 0.00 0.00 0.00 71 1016.2
20260503205403 11 77 0.0 3.2 0.00 0.00 0.00 70 1016.1
20260503204503 11 46 0.0 3.2 0.00 0.00 0.00 68 1016.1
20260503203603 11 56 1.6 4.8 0.00 0.00 0.00 69 1016.3
20260503202913 11 62 1.6 4.8 0.00 0.00 0.00 68 1016.1
20260503201803 12 32 1.6 3.2 0.00 0.00 0.00 68 1016.2
20260503200903 12 57 0.0 3.2 0.00 0.00 0.00 67 1016.1
20260503200003 12 35 0.0 3.2 0.00 0.00 0.00 66 1016.1
20260503195403 12 352 0.0 3.2 0.00 0.00 0.00 65 1016.1
20260503194503 12 21 0.0 1.6 0.00 0.00 0.00 65 1015.9
20260503193603 13 40 0.0 1.6 0.00 0.00 0.00 64 1016.1
20260503192703 13 33 0.0 3.2 0.00 0.00 0.00 62 1016.1
20260503192014 13 29 0.0 3.2 0.00 0.00 0.00 62 1015.9
20260503190903 14 37 0.0 1.6 0.00 0.00 0.00 60 1015.9
20260503190003 15 22 0.0 1.6 0.00 0.00 0.00 59 1016.1
20260503185614 15 0 0.0 1.6 0.00 0.00 0.00 58 1016.1
20260503184503 16 94 0.0 3.2 0.00 0.00 0.00 55 1015.8
20260503183603 16 48 0.0 1.6 0.00 0.00 0.00 54 1015.8
20260503182703 17 176 0.0 1.6 0.00 0.00 0.00 50 1015.9
20260503181803 17 115 0.0 1.6 0.00 0.00 0.00 47 1015.7
20260503181112 18 101 0.0 3.2 0.00 0.00 0.00 45 1015.9
20260503180003 19 107 0.0 3.2 0.00 0.00 0.00 41 1015.6
20260503175403 20 112 0.0 3.2 0.00 0.00 0.00 40 1015.7
20260503174503 20 133 0.0 3.2 0.00 0.00 0.00 38 1015.6
20260503173603 21 0 0.0 1.6 0.00 0.00 0.00 36 1015.5
20260503172703 21 100 0.0 1.6 0.00 0.00 0.00 35 1015.5
20260503171803 22 176 0.0 3.2 0.00 0.00 0.00 33 1015.5
20260503171114 22 164 1.6 4.8 0.00 0.00 0.00 33 1015.8
20260503150903 24 186 6.4 17.7 0.00 0.00 0.00 27 1016.5
20260503140212 25 204 6.4 11.3 0.00 0.00 0.00 26 1017.1
20260503131113 24 212 6.4 14.5 0.00 0.00 0.00 29 1017.9
20260503100213 22 173 6.4 19.3 0.00 0.00 0.00 35 1019.6
20260503081113 19 154 3.2 9.7 0.00 0.00 0.00 45 1020.2
20260503072703 17 156 4.8 9.7 0.00 0.00 0.00 49 1020.2
20260503071803 16 182 4.8 12.9 0.00 0.00 0.00 52 1020.4
20260503071112 16 155 4.8 9.7 0.00 0.00 0.00 53 1020.4
20260503054503 13 134 1.6 6.4 0.00 0.00 0.00 62 1020.1
20260503053603 13 129 3.2 8.0 0.00 0.00 0.00 63 1020.4
20260503052703 13 118 1.6 6.4 0.00 0.00 0.00 62 1020.4
20260503051803 12 115 1.6 4.8 0.00 0.00 0.00 65 1020.4
20260503051113 12 116 1.6 4.8 0.00 0.00 0.00 65 1020.2
20260503050003 11 122 1.6 8.0 0.00 0.00 0.00 67 1020.4
20260503045403 10 129 1.6 4.8 0.00 0.00 0.00 71 1020.5
20260503044503 10 117 1.6 4.8 0.00 0.00 0.00 72 1020.2
20260503043603 8 124 1.6 4.8 0.00 0.00 0.00 74 1020.5
20260503042703 7 130 1.6 3.2 0.00 0.00 0.00 78 1020.2
20260503041803 6 122 1.6 3.2 0.00 0.00 0.00 83 1020.2
20260503040903 6 84 1.6 3.2 0.00 0.00 0.00 80 1020.1
20260503040003 4 47 0.0 3.2 0.00 0.00 0.00 89 1020.4
20260503035403 4 56 0.0 3.2 0.00 0.00 0.00 92 1020.5
20260503034503 3 49 0.0 3.2 0.00 0.00 0.00 93 1020.2
20260503033603 3 63 0.0 1.6 0.00 0.00 0.00 95 1020.1
20260503032703 2 87 0.0 3.2 0.00 0.00 0.00 95 1019.9
20260503031803 2 80 0.0 3.2 0.00 0.00 0.00 95 1020.1
20260503031113 2 52 0.0 3.2 0.00 0.00 0.00 95 1020.2
20260503030214 2 100 0.0 3.2 0.00 0.00 0.00 96 1020.2
20260503025403 2 87 1.6 3.2 0.00 0.00 0.00 95 1020.0
20260503024713 2 84 0.0 3.2 0.00 0.00 0.00 95 1020.1
20260503023603 3 68 0.0 3.2 0.00 0.00 0.00 95 1020.0
20260503022703 2 101 0.0 3.2 0.00 0.00 0.00 95 1020.2
20260503021803 3 82 0.0 1.6 0.00 0.00 0.00 95 1019.9
20260503021112 3 81 0.0 1.6 0.00 0.00 0.00 95 1020.2
20260503020214 3 139 1.6 3.2 0.00 0.00 0.00 95 1020.4
20260503015403 3 133 1.6 3.2 0.00 0.00 0.00 95 1020.1
20260503014503 3 79 0.0 1.6 0.00 0.00 0.00 92 1020.0
20260503013603 3 78 1.6 3.2 0.00 0.00 0.00 92 1020.5
20260503012703 3 60 0.0 3.2 0.00 0.00 0.00 92 1020.7
20260503011803 3 82 0.0 1.6 0.00 0.00 0.00 92 1020.8
20260503010903 3 79 0.0 1.6 0.00 0.00 0.00 91 1020.6
20260503010003 3 79 0.0 3.2 0.00 0.00 0.00 92 1020.5
20260503005403 3 85 0.0 3.2 0.00 0.00 0.00 91 1020.6
20260503004503 4 103 0.0 3.2 0.00 0.00 0.00 91 1020.7
20260503003603 4 78 0.0 3.2 0.00 0.00 0.00 90 1020.7
20260503002703 5 51 0.0 1.6 0.00 0.00 0.00 90 1020.6
20260503001803 5 68 0.0 3.2 0.00 0.00 0.00 89 1020.6
20260503001114 5 57 0.0 3.2 0.00 0.00 0.00 89 1020.8
20260503000003 5 68 0.0 3.2 0.00 0.00 0.00 89 1020.6
20260502235403 5 65 0.0 3.2 0.00 0.00 0.00 89 1020.7
20260502234503 5 65 0.0 3.2 0.00 0.00 0.00 89 1020.7
20260502233603 5 113 0.0 1.6 0.00 0.00 0.00 89 1021.0
20260502232912 5 96 0.0 1.6 0.00 0.00 0.00 88 1020.8
20260502231803 5 103 0.0 1.6 0.00 0.00 0.00 87 1020.8
20260502230903 6 83 0.0 3.2 0.00 0.00 0.00 86 1020.8
20260502230003 6 69 1.6 3.2 0.00 0.00 0.00 87 1021.0
20260502225403 6 63 0.0 1.6 0.00 0.00 0.00 85 1021.0
20260502224503 6 43 0.0 3.2 0.00 0.00 0.00 85 1021.2
20260502223813 6 83 0.0 3.2 0.00 0.00 0.00 85 1021.1
20260502222912 7 8 0.0 3.2 0.00 0.00 0.00 85 1021.1
20260502221803 7 121 0.0 1.6 0.00 0.00 0.00 85 1021.2
20260502220903 7 32 0.0 1.6 0.00 0.00 0.00 83 1021.1
20260502220003 7 0 0.0 1.6 0.00 0.00 0.00 85 1021.1
20260502215403 7 97 0.0 1.6 0.00 0.00 0.00 84 1021.2
20260502214713 7 84 0.0 1.6 0.00 0.00 0.00 83 1021.3
20260502213603 8 50 0.0 1.6 0.00 0.00 0.00 82 1021.2
20260502212808 8 48 0.0 1.6 0.00 0.00 0.00 81 1021.2
20260502212013 8 61 0.0 1.6 0.00 0.00 0.00 82 1021.3
20260502210903 8 0 0.0 1.6 0.00 0.00 0.00 79 1021.4